| time (UTC) | temp C | wind direction | speed KPH | gust KPH | rain 1hr cm | rain 24hr cm | rain mn cm | humidity % | barometer mb |
| 20260508064551 | 10 | 0 | 0.0 | 3.2 | 0.00 | 1.22 | 0.00 | 95 | 1014.5 |
| 20260508064050 | 10 | 0 | 0.0 | 3.2 | 0.00 | 1.22 | 0.00 | 95 | 1014.4 |
| 20260508063545 | 10 | 109 | 0.0 | 3.2 | 0.00 | 1.22 | 0.00 | 95 | 1014.3 |
| 20260508063056 | 10 | 109 | 0.0 | 4.8 | 0.00 | 1.22 | 0.00 | 95 | 1014.5 |
| 20260508062549 | 10 | 0 | 0.0 | 4.8 | 0.00 | 1.22 | 0.00 | 95 | 1014.5 |
| 20260508062048 | 10 | 109 | 0.0 | 4.8 | 0.00 | 1.22 | 0.00 | 94 | 1014.5 |
| 20260508061556 | 10 | 0 | 0.0 | 0.0 | 0.00 | 1.22 | 0.00 | 95 | 1014.5 |
| 20260508061049 | 10 | 0 | 0.0 | 0.0 | 0.00 | 1.22 | 0.00 | 95 | 1014.5 |
| 20260508060545 | 10 | 0 | 0.0 | 0.0 | 0.00 | 1.22 | 0.00 | 95 | 1014.4 |
| 20260508060057 | 10 | 0 | 0.0 | 0.0 | 0.00 | 1.22 | 0.00 | 94 | 1014.5 |
| 20260508055549 | 10 | 0 | 0.0 | 0.0 | 0.00 | 1.22 | 0.00 | 95 | 1014.5 |
| 20260508055045 | 10 | 0 | 0.0 | 3.2 | 0.00 | 1.22 | 0.00 | 95 | 1014.4 |
| 20260508054558 | 10 | 0 | 0.0 | 3.2 | 0.00 | 1.22 | 0.00 | 95 | 1014.4 |
| 20260508054049 | 10 | 74 | 0.0 | 3.2 | 0.00 | 1.22 | 0.00 | 95 | 1014.4 |
| 20260508053546 | 11 | 0 | 0.0 | 3.2 | 0.00 | 1.22 | 0.00 | 95 | 1014.4 |
| 20260508053056 | 11 | 65 | 0.0 | 0.0 | 0.00 | 1.22 | 0.00 | 95 | 1014.4 |
| 20260508052545 | 11 | 0 | 0.0 | 0.0 | 0.00 | 1.22 | 0.00 | 95 | 1014.3 |
| 20260508052048 | 11 | 0 | 0.0 | 0.0 | 0.00 | 1.22 | 0.00 | 95 | 1014.4 |
| 20260508051552 | 11 | 0 | 0.0 | 0.0 | 0.00 | 1.22 | 0.00 | 95 | 1014.4 |
| 20260508051054 | 11 | 0 | 0.0 | 0.0 | 0.00 | 1.22 | 0.00 | 95 | 1014.3 |
| 20260508050551 | 11 | 0 | 0.0 | 0.0 | 0.00 | 1.22 | 0.00 | 95 | 1014.4 |
| 20260508050054 | 10 | 0 | 0.0 | 0.0 | 0.00 | 1.22 | 0.00 | 95 | 1014.3 |
| 20260508045545 | 11 | 0 | 0.0 | 0.0 | 0.00 | 1.42 | 0.00 | 94 | 1014.3 |
| 20260508045048 | 11 | 0 | 0.0 | 0.0 | 0.00 | 1.42 | 0.00 | 94 | 1014.2 |
| 20260508044603 | 11 | 0 | 0.0 | 0.0 | 0.00 | 1.42 | 0.00 | 94 | 1014.2 |
| 20260508044048 | 11 | 0 | 0.0 | 0.0 | 0.00 | 1.42 | 0.00 | 94 | 1014.2 |
| 20260508043548 | 11 | 0 | 0.0 | 0.0 | 0.00 | 1.42 | 0.00 | 94 | 1014.1 |
| 20260508043053 | 11 | 0 | 0.0 | 0.0 | 0.00 | 1.42 | 0.00 | 94 | 1013.9 |
| 20260508042545 | 11 | 0 | 0.0 | 0.0 | 0.00 | 1.42 | 0.00 | 94 | 1014.0 |
| 20260508042048 | 11 | 0 | 0.0 | 0.0 | 0.00 | 1.42 | 0.00 | 94 | 1013.9 |
| 20260508041548 | 11 | 0 | 0.0 | 0.0 | 0.00 | 1.42 | 0.00 | 94 | 1013.9 |
| 20260508041048 | 11 | 0 | 0.0 | 0.0 | 0.00 | 1.42 | 0.00 | 94 | 1013.9 |
| 20260508040547 | 11 | 0 | 0.0 | 0.0 | 0.00 | 1.42 | 0.00 | 94 | 1013.8 |
| 20260508040058 | 11 | 0 | 0.0 | 0.0 | 0.00 | 1.42 | 0.00 | 94 | 1013.8 |
| 20260508035545 | 11 | 0 | 0.0 | 0.0 | 0.00 | 1.85 | 1.42 | 94 | 1013.8 |
| 20260508035048 | 11 | 0 | 0.0 | 0.0 | 0.00 | 1.85 | 1.42 | 94 | 1013.9 |
| 20260508034555 | 11 | 0 | 0.0 | 0.0 | 0.00 | 1.85 | 1.42 | 94 | 1013.8 |
| 20260508034046 | 11 | 0 | 0.0 | 0.0 | 0.00 | 1.85 | 1.42 | 94 | 1013.8 |
| 20260508033545 | 11 | 0 | 0.0 | 0.0 | 0.00 | 1.85 | 1.42 | 94 | 1013.9 |
| 20260508033052 | 11 | 0 | 0.0 | 0.0 | 0.00 | 1.85 | 1.42 | 94 | 1013.9 |
| 20260508032546 | 11 | 0 | 0.0 | 0.0 | 0.00 | 1.85 | 1.42 | 94 | 1013.8 |
| 20260508032049 | 11 | 0 | 0.0 | 0.0 | 0.00 | 1.85 | 1.42 | 94 | 1013.7 |
| 20260508031553 | 11 | 0 | 0.0 | 0.0 | 0.00 | 1.85 | 1.42 | 94 | 1013.6 |
| 20260508031048 | 11 | 0 | 0.0 | 0.0 | 0.00 | 1.85 | 1.42 | 94 | 1013.6 |
| 20260508030548 | 11 | 0 | 0.0 | 0.0 | 0.00 | 1.85 | 1.42 | 94 | 1013.5 |
| 20260508025549 | 11 | 0 | 0.0 | 0.0 | 0.00 | 1.98 | 1.42 | 95 | 1013.7 |
| 20260508025045 | 12 | 0 | 0.0 | 1.6 | 0.00 | 1.98 | 1.42 | 94 | 1013.7 |
| 20260508024558 | 12 | 0 | 0.0 | 1.6 | 0.00 | 1.98 | 1.42 | 94 | 1013.5 |
| 20260508024046 | 12 | 0 | 0.0 | 1.6 | 0.00 | 1.98 | 1.42 | 94 | 1013.4 |
| 20260508023548 | 12 | 0 | 0.0 | 1.6 | 0.00 | 1.98 | 1.42 | 94 | 1013.1 |
| 20260508023055 | 12 | 0 | 0.0 | 1.6 | 0.00 | 1.98 | 1.42 | 94 | 1013.1 |
| 20260508022545 | 12 | 0 | 0.0 | 1.6 | 0.00 | 1.98 | 1.42 | 95 | 1013.2 |
| 20260508022048 | 12 | 0 | 0.0 | 1.6 | 0.00 | 1.98 | 1.42 | 95 | 1013.2 |
| 20260508021600 | 12 | 0 | 0.0 | 0.0 | 0.00 | 1.98 | 1.42 | 95 | 1013.1 |
| 20260508021048 | 12 | 0 | 0.0 | 1.6 | 0.00 | 1.98 | 1.42 | 95 | 1013.0 |
| 20260508020548 | 12 | 0 | 0.0 | 1.6 | 0.00 | 1.98 | 1.42 | 95 | 1013.1 |
| 20260508020055 | 12 | 0 | 0.0 | 1.6 | 0.00 | 1.98 | 1.42 | 95 | 1013.1 |
| 20260508015550 | 12 | 0 | 0.0 | 1.6 | 0.00 | 1.98 | 1.42 | 95 | 1013.1 |
| 20260508015048 | 12 | 0 | 0.0 | 1.6 | 0.00 | 1.98 | 1.42 | 95 | 1013.0 |
| 20260508014558 | 12 | 0 | 0.0 | 1.6 | 0.00 | 1.98 | 1.42 | 95 | 1012.9 |
| 20260508014045 | 12 | 0 | 0.0 | 1.6 | 0.00 | 1.98 | 1.42 | 95 | 1012.8 |
| 20260508013545 | 12 | 0 | 0.0 | 1.6 | 0.00 | 1.98 | 1.42 | 95 | 1012.7 |
| 20260508013057 | 12 | 0 | 0.0 | 4.8 | 0.00 | 1.98 | 1.42 | 95 | 1012.6 |
| 20260508012548 | 12 | 65 | 0.0 | 4.8 | 0.00 | 1.98 | 1.42 | 95 | 1012.5 |
| 20260508012048 | 12 | 0 | 0.0 | 4.8 | 0.00 | 1.98 | 1.42 | 95 | 1012.5 |
| 20260508011605 | 12 | 0 | 0.0 | 0.0 | 0.00 | 1.98 | 1.42 | 95 | 1012.4 |
| 20260508011045 | 12 | 0 | 0.0 | 0.0 | 0.00 | 1.98 | 1.42 | 95 | 1012.4 |
| 20260508010545 | 12 | 0 | 0.0 | 0.0 | 0.00 | 1.98 | 1.42 | 95 | 1012.2 |
| 20260508010057 | 12 | 0 | 0.0 | 3.2 | 0.00 | 1.98 | 1.42 | 95 | 1011.9 |
| 20260508005545 | 12 | 0 | 0.0 | 3.2 | 0.00 | 1.98 | 1.42 | 95 | 1011.7 |
| 20260508005046 | 12 | 77 | 0.0 | 4.8 | 0.00 | 1.98 | 1.42 | 95 | 1011.7 |
| 20260508004556 | 12 | 0 | 0.0 | 8.0 | 0.00 | 1.98 | 1.42 | 95 | 1011.5 |
| 20260508004046 | 12 | 55 | 1.6 | 8.0 | 0.00 | 1.98 | 1.42 | 95 | 1011.5 |
| 20260508003549 | 12 | 33 | 0.0 | 6.4 | 0.00 | 1.98 | 1.42 | 95 | 1011.5 |
| 20260508003056 | 12 | 53 | 1.6 | 6.4 | 0.00 | 1.98 | 1.42 | 95 | 1011.5 |
| 20260508002550 | 12 | 0 | 0.0 | 4.8 | 0.00 | 1.98 | 1.42 | 95 | 1011.6 |
| 20260508002046 | 12 | 46 | 0.0 | 4.8 | 0.00 | 1.98 | 1.42 | 95 | 1011.7 |
| 20260508001551 | 12 | 0 | 0.0 | 4.8 | 0.00 | 1.98 | 1.42 | 95 | 1011.7 |
| 20260508001045 | 12 | 0 | 1.6 | 4.8 | 0.00 | 1.98 | 1.42 | 95 | 1011.4 |
| 20260508000545 | 13 | 0 | 1.6 | 6.4 | 0.00 | 1.98 | 1.42 | 95 | 1011.4 |
| 20260508000050 | 13 | 0 | 0.0 | 6.4 | 0.00 | 1.98 | 1.42 | 95 | 1011.5 |
| 20260507235545 | 13 | 35 | 1.6 | 4.8 | 0.00 | 1.98 | 1.42 | 95 | 1011.4 |
| 20260507235045 | 13 | 0 | 0.0 | 3.2 | 0.03 | 1.98 | 1.42 | 95 | 1011.6 |
| 20260507234600 | 13 | 37 | 1.6 | 4.8 | 0.03 | 1.98 | 1.42 | 95 | 1011.5 |
| 20260507234048 | 13 | 0 | 0.0 | 4.8 | 0.03 | 1.98 | 1.42 | 95 | 1011.7 |
| 20260507233545 | 13 | 40 | 0.0 | 4.8 | 0.03 | 1.98 | 1.42 | 95 | 1011.6 |
| 20260507233052 | 13 | 0 | 0.0 | 4.8 | 0.03 | 1.98 | 1.42 | 95 | 1011.5 |
| 20260507232547 | 13 | 0 | 0.0 | 4.8 | 0.03 | 1.98 | 1.42 | 95 | 1011.1 |
| 20260507232044 | 13 | 0 | 0.0 | 6.4 | 0.03 | 1.98 | 1.42 | 95 | 1010.9 |
| 20260507231557 | 13 | 0 | 0.0 | 6.4 | 0.03 | 1.98 | 1.42 | 95 | 1010.8 |
| 20260507231046 | 13 | 84 | 0.0 | 3.2 | 0.03 | 1.98 | 1.42 | 95 | 1010.8 |
| 20260507230546 | 13 | 0 | 0.0 | 8.0 | 0.03 | 1.98 | 1.42 | 95 | 1010.6 |
| 20260507230059 | 13 | 129 | 0.0 | 8.0 | 0.03 | 1.98 | 1.42 | 95 | 1010.6 |
| 20260507225546 | 13 | 63 | 3.2 | 16.1 | 0.03 | 1.98 | 1.42 | 95 | 1010.5 |
| 20260507225046 | 13 | 61 | 1.6 | 16.1 | 0.00 | 1.96 | 1.40 | 95 | 1010.4 |
| 20260507224551 | 13 | 53 | 3.2 | 16.1 | 0.00 | 1.96 | 1.40 | 95 | 1010.2 |
| 20260507224048 | 13 | 73 | 3.2 | 14.5 | 0.00 | 1.96 | 1.40 | 95 | 1010.2 |
| 20260507223548 | 13 | 38 | 3.2 | 14.5 | 0.00 | 1.96 | 1.40 | 95 | 1010.3 |
| 20260507223056 | 13 | 55 | 3.2 | 14.5 | 0.00 | 1.96 | 1.40 | 95 | 1010.1 |
| 20260507222548 | 13 | 17 | 1.6 | 11.3 | 0.05 | 1.96 | 1.40 | 95 | 1010.2 |
| 20260507222045 | 13 | 44 | 1.6 | 12.9 | 0.13 | 1.96 | 1.40 | 95 | 1009.8 |
| 20260507221554 | 13 | 9 | 4.8 | 12.9 | 0.13 | 1.96 | 1.40 | 95 | 1009.8 |
| 20260507221048 | 13 | 13 | 0.0 | 8.0 | 0.13 | 1.96 | 1.40 | 95 | 1010.1 |
| 20260507220545 | 13 | 71 | 3.2 | 14.5 | 0.13 | 1.96 | 1.40 | 95 | 1009.9 |
| 20260507220056 | 13 | 34 | 1.6 | 22.5 | 0.13 | 1.96 | 1.40 | 95 | 1009.8 |
| 20260507215546 | 13 | 11 | 4.8 | 22.5 | 0.13 | 1.96 | 1.40 | 95 | 1009.8 |
| 20260507215046 | 13 | 75 | 3.2 | 16.1 | 0.13 | 1.96 | 1.40 | 94 | 1009.8 |
| 20260507214600 | 13 | 54 | 3.2 | 16.1 | 0.15 | 1.96 | 1.40 | 95 | 1009.7 |
| 20260507214048 | 13 | 34 | 4.8 | 16.1 | 0.15 | 1.96 | 1.40 | 94 | 1009.8 |
| 20260507213545 | 13 | 39 | 3.2 | 16.1 | 0.15 | 1.96 | 1.40 | 95 | 1009.9 |
| 20260507213056 | 13 | 23 | 3.2 | 16.1 | 0.15 | 1.96 | 1.40 | 95 | 1009.8 |
| 20260507212545 | 13 | 31 | 4.8 | 12.9 | 0.10 | 1.91 | 1.32 | 93 | 1009.7 |
| 20260507212048 | 13 | 92 | 0.0 | 14.5 | 0.03 | 1.83 | 1.27 | 93 | 1010.2 |
| 20260507211552 | 13 | 92 | 3.2 | 14.5 | 0.03 | 1.83 | 1.27 | 93 | 1010.1 |
| 20260507211044 | 13 | 43 | 1.6 | 11.3 | 0.03 | 1.83 | 1.27 | 93 | 1010.0 |
| 20260507210546 | 13 | 17 | 3.2 | 24.1 | 0.03 | 1.83 | 1.27 | 93 | 1009.9 |
| 20260507210056 | 13 | 23 | 6.4 | 24.1 | 0.03 | 1.83 | 1.27 | 93 | 1009.4 |
| 20260507205546 | 13 | 19 | 6.4 | 24.1 | 0.03 | 1.83 | 1.27 | 92 | 1009.3 |
| 20260507205046 | 13 | 21 | 4.8 | 12.9 | 0.03 | 1.83 | 1.27 | 92 | 1009.6 |
| 20260507204559 | 13 | 25 | 4.8 | 19.3 | 0.00 | 1.80 | 1.24 | 92 | 1009.7 |
| 20260507204045 | 14 | 57 | 6.4 | 19.3 | 0.00 | 1.80 | 1.24 | 92 | 1009.5 |
| 20260507203547 | 14 | 51 | 6.4 | 19.3 | 0.00 | 1.80 | 1.24 | 92 | 1009.5 |
| 20260507203105 | 14 | 14 | 4.8 | 16.1 | 0.00 | 1.80 | 1.24 | 93 | 1009.5 |
| 20260507202545 | 14 | 17 | 4.8 | 16.1 | 0.00 | 1.80 | 1.24 | 93 | 1009.2 |
| 20260507202048 | 14 | 34 | 4.8 | 19.3 | 0.00 | 1.80 | 1.24 | 93 | 1009.2 |
| 20260507201551 | 15 | 54 | 8.0 | 19.3 | 0.00 | 1.80 | 1.24 | 92 | 1009.1 |
| 20260507201048 | 15 | 327 | 4.8 | 19.3 | 0.00 | 1.80 | 1.24 | 92 | 1009.4 |
| 20260507200548 | 15 | 306 | 4.8 | 19.3 | 0.00 | 1.80 | 1.24 | 93 | 1009.4 |
| 20260507200056 | 15 | 28 | 4.8 | 19.3 | 0.00 | 1.80 | 1.24 | 93 | 1009.3 |
| 20260507195550 | 15 | 74 | 6.4 | 19.3 | 0.00 | 1.80 | 1.24 | 93 | 1009.0 |
| 20260507195048 | 15 | 61 | 4.8 | 19.3 | 0.00 | 1.80 | 1.24 | 93 | 1009.3 |
| 20260507194554 | 15 | 32 | 6.4 | 20.9 | 0.00 | 1.80 | 1.24 | 93 | 1009.2 |
| 20260507194046 | 15 | 37 | 4.8 | 20.9 | 0.00 | 1.80 | 1.24 | 95 | 1009.0 |
| 20260507193547 | 15 | 41 | 8.0 | 20.9 | 0.00 | 1.80 | 1.24 | 95 | 1008.8 |
| 20260507193100 | 15 | 61 | 3.2 | 16.1 | 0.00 | 1.80 | 1.24 | 95 | 1009.1 |
| 20260507192545 | 15 | 42 | 6.4 | 19.3 | 0.00 | 1.80 | 1.24 | 94 | 1009.1 |
| 20260507192045 | 15 | 46 | 4.8 | 19.3 | 0.00 | 1.80 | 1.24 | 94 | 1009.2 |
| 20260507191548 | 15 | 336 | 3.2 | 16.1 | 0.00 | 1.80 | 1.24 | 94 | 1009.5 |
| 20260507191049 | 16 | 34 | 3.2 | 12.9 | 0.00 | 1.80 | 1.24 | 94 | 1009.4 |
| 20260507190545 | 16 | 53 | 1.6 | 9.7 | 0.00 | 1.80 | 1.24 | 94 | 1009.6 |
| 20260507190057 | 16 | 64 | 3.2 | 11.3 | 0.00 | 1.80 | 1.24 | 94 | 1009.5 |
| 20260507185547 | 16 | 75 | 4.8 | 20.9 | 0.00 | 1.96 | 1.24 | 92 | 1009.3 |
| 20260507185051 | 17 | 352 | 4.8 | 20.9 | 0.00 | 1.96 | 1.24 | 92 | 1009.3 |
| 20260507184556 | 17 | 114 | 6.4 | 20.9 | 0.00 | 1.96 | 1.24 | 93 | 1009.4 |
| 20260507184046 | 17 | 331 | 1.6 | 6.4 | 0.00 | 1.96 | 1.24 | 94 | 1009.4 |
| 20260507183545 | 18 | 0 | 0.0 | 9.7 | 0.00 | 1.96 | 1.24 | 94 | 1009.3 |
| 20260507183058 | 18 | 0 | 3.2 | 12.9 | 0.00 | 1.96 | 1.24 | 94 | 1009.4 |
| 20260507182546 | 18 | 64 | 3.2 | 12.9 | 0.00 | 1.96 | 1.24 | 94 | 1009.3 |
| 20260507182046 | 18 | 305 | 0.0 | 11.3 | 0.00 | 1.96 | 1.24 | 95 | 1009.2 |
| 20260507181549 | 18 | 0 | 1.6 | 16.1 | 0.00 | 1.96 | 1.24 | 95 | 1009.2 |
| 20260507181045 | 18 | 38 | 3.2 | 16.1 | 0.03 | 1.96 | 1.24 | 95 | 1008.8 |
| 20260507180545 | 19 | 71 | 1.6 | 6.4 | 0.05 | 1.96 | 1.24 | 96 | 1008.8 |
| 20260507180053 | 19 | 0 | 0.0 | 0.0 | 0.05 | 1.96 | 1.24 | 96 | 1008.9 |
| 20260507175545 | 19 | 0 | 0.0 | 4.8 | 0.05 | 1.98 | 1.24 | 96 | 1009.0 |
| 20260507175049 | 19 | 0 | 0.0 | 4.8 | 0.05 | 1.98 | 1.24 | 96 | 1009.1 |
| 20260507174607 | 19 | 0 | 0.0 | 1.6 | 0.08 | 1.98 | 1.24 | 96 | 1009.4 |
| 20260507174047 | 19 | 0 | 0.0 | 1.6 | 0.08 | 1.98 | 1.24 | 96 | 1009.3 |
| 20260507173546 | 19 | 0 | 0.0 | 6.4 | 0.08 | 1.98 | 1.24 | 96 | 1009.0 |
| 20260507173059 | 19 | 0 | 1.6 | 6.4 | 0.08 | 1.98 | 1.24 | 96 | 1008.9 |
| 20260507172547 | 19 | 0 | 0.0 | 0.0 | 0.08 | 1.98 | 1.24 | 96 | 1009.1 |
| 20260507172045 | 19 | 0 | 0.0 | 0.0 | 0.20 | 1.98 | 1.24 | 96 | 1009.3 |
| 20260507171612 | 19 | 0 | 0.0 | 0.0 | 0.20 | 1.98 | 1.24 | 96 | 1009.4 |
| 20260507171047 | 18 | 0 | 0.0 | 0.0 | 0.20 | 1.96 | 1.22 | 96 | 1009.4 |
| 20260507170546 | 18 | 0 | 0.0 | 0.0 | 0.18 | 1.93 | 1.19 | 96 | 1009.1 |
| 20260507170057 | 18 | 0 | 0.0 | 0.0 | 0.18 | 1.93 | 1.19 | 96 | 1009.4 |
| 20260507165546 | 18 | 0 | 0.0 | 0.0 | 0.18 | 1.93 | 1.19 | 96 | 1009.6 |
| 20260507165045 | 18 | 0 | 0.0 | 0.0 | 0.18 | 1.93 | 1.19 | 96 | 1010.1 |
| 20260507164607 | 18 | 0 | 0.0 | 1.6 | 0.15 | 1.91 | 1.17 | 96 | 1009.4 |
| 20260507164048 | 18 | 0 | 0.0 | 8.0 | 0.15 | 1.91 | 1.17 | 96 | 1008.8 |
| 20260507163546 | 18 | 0 | 0.0 | 9.7 | 0.18 | 1.91 | 1.17 | 96 | 1008.7 |
| 20260507163059 | 18 | 0 | 0.0 | 9.7 | 0.18 | 1.91 | 1.17 | 96 | 1009.0 |
| 20260507162548 | 18 | 30 | 0.0 | 4.8 | 0.18 | 1.91 | 1.17 | 96 | 1008.8 |
| 20260507162047 | 18 | 0 | 0.0 | 3.2 | 0.05 | 1.78 | 1.04 | 96 | 1008.9 |
| 20260507161605 | 18 | 0 | 0.0 | 0.0 | 0.05 | 1.78 | 1.04 | 96 | 1008.9 |
| 20260507161046 | 18 | 0 | 0.0 | 1.6 | 0.05 | 1.75 | 1.02 | 96 | 1008.9 |
| 20260507160548 | 18 | 0 | 0.0 | 1.6 | 0.05 | 1.75 | 1.02 | 96 | 1009.0 |
| 20260507160058 | 18 | 0 | 0.0 | 1.6 | 0.05 | 1.75 | 1.02 | 96 | 1009.0 |
| 20260507155545 | 18 | 0 | 0.0 | 0.0 | 0.05 | 1.75 | 1.02 | 96 | 1009.2 |
| 20260507155047 | 18 | 0 | 0.0 | 0.0 | 0.05 | 1.75 | 1.02 | 96 | 1009.3 |
| 20260507154552 | 18 | 0 | 0.0 | 0.0 | 0.05 | 1.75 | 1.02 | 96 | 1009.6 |
| 20260507154047 | 18 | 0 | 0.0 | 0.0 | 0.08 | 1.75 | 1.02 | 96 | 1009.8 |
| 20260507153545 | 18 | 0 | 0.0 | 0.0 | 0.05 | 1.73 | 0.99 | 96 | 1009.8 |
| 20260507153055 | 18 | 0 | 0.0 | 0.0 | 0.05 | 1.73 | 0.99 | 96 | 1010.0 |
| 20260507152545 | 18 | 0 | 0.0 | 3.2 | 0.05 | 1.73 | 0.99 | 96 | 1010.3 |
| 20260507152051 | 18 | 0 | 0.0 | 3.2 | 0.08 | 1.73 | 0.99 | 96 | 1010.4 |
| 20260507151556 | 18 | 0 | 0.0 | 3.2 | 0.08 | 1.73 | 0.99 | 96 | 1010.7 |
| 20260507151045 | 18 | 0 | 0.0 | 3.2 | 0.05 | 1.70 | 0.97 | 96 | 1010.8 |
| 20260507150545 | 18 | 0 | 0.0 | 0.0 | 0.08 | 1.70 | 0.97 | 96 | 1010.6 |
| 20260507145545 | 18 | 0 | 0.0 | 1.6 | 0.08 | 1.70 | 0.97 | 96 | 1010.2 |
| 20260507145047 | 18 | 0 | 0.0 | 1.6 | 0.10 | 1.70 | 0.97 | 96 | 1009.8 |
| 20260507144553 | 18 | 0 | 0.0 | 0.0 | 0.10 | 1.70 | 0.97 | 96 | 1009.4 |
| 20260507144047 | 18 | 0 | 0.0 | 0.0 | 0.10 | 1.68 | 0.94 | 96 | 1009.7 |
| 20260507143546 | 18 | 0 | 0.0 | 1.6 | 0.10 | 1.68 | 0.94 | 96 | 1009.8 |
| 20260507143103 | 18 | 0 | 0.0 | 1.6 | 0.13 | 1.68 | 0.94 | 96 | 1009.8 |
| 20260507142545 | 18 | 0 | 0.0 | 0.0 | 0.13 | 1.68 | 0.94 | 96 | 1009.7 |
| 20260507142048 | 18 | 0 | 0.0 | 0.0 | 0.13 | 1.65 | 0.91 | 96 | 1009.8 |
| 20260507141558 | 18 | 0 | 0.0 | 0.0 | 0.13 | 1.65 | 0.91 | 96 | 1009.9 |
| 20260507141047 | 18 | 0 | 0.0 | 0.0 | 0.15 | 1.65 | 0.91 | 96 | 1009.6 |
| 20260507140548 | 18 | 0 | 0.0 | 0.0 | 0.13 | 1.63 | 0.89 | 96 | 1009.4 |
| 20260507140051 | 18 | 0 | 0.0 | 0.0 | 0.15 | 1.63 | 0.89 | 96 | 1009.5 |
| 20260507135546 | 18 | 0 | 0.0 | 0.0 | 0.15 | 1.63 | 0.89 | 96 | 1009.4 |
| 20260507135047 | 18 | 0 | 0.0 | 3.2 | 0.13 | 1.60 | 0.86 | 96 | 1009.2 |
| 20260507134557 | 18 | 0 | 0.0 | 3.2 | 0.15 | 1.60 | 0.86 | 96 | 1009.4 |
| 20260507134045 | 18 | 0 | 0.0 | 1.6 | 0.13 | 1.57 | 0.84 | 96 | 1009.4 |
| 20260507133546 | 18 | 0 | 0.0 | 0.0 | 0.13 | 1.57 | 0.84 | 96 | 1010.0 |
| 20260507133050 | 18 | 0 | 0.0 | 0.0 | 0.13 | 1.55 | 0.81 | 96 | 1010.0 |
| 20260507132545 | 18 | 0 | 0.0 | 0.0 | 0.13 | 1.55 | 0.81 | 96 | 1009.9 |
| 20260507132047 | 18 | 0 | 0.0 | 4.8 | 0.10 | 1.52 | 0.79 | 96 | 1010.1 |
| 20260507131558 | 18 | 0 | 0.0 | 4.8 | 0.10 | 1.52 | 0.79 | 96 | 1010.2 |
| 20260507131051 | 18 | 0 | 0.0 | 3.2 | 0.08 | 1.47 | 0.76 | 96 | 1010.3 |
| 20260507130550 | 18 | 0 | 0.0 | 6.4 | 0.10 | 1.47 | 0.76 | 96 | 1010.6 |
| 20260507130055 | 18 | 271 | 1.6 | 6.4 | 0.08 | 1.47 | 0.74 | 96 | 1010.7 |
| 20260507125545 | 17 | 320 | 0.0 | 4.8 | 0.08 | 1.47 | 0.74 | 96 | 1011.1 |
| 20260507125045 | 18 | 263 | 0.0 | 4.8 | 0.08 | 1.47 | 0.74 | 96 | 1011.2 |
| 20260507124557 | 17 | 0 | 1.6 | 4.8 | 0.05 | 1.45 | 0.71 | 96 | 1011.1 |
| 20260507124049 | 17 | 0 | 0.0 | 3.2 | 0.05 | 1.45 | 0.71 | 96 | 1010.9 |
| 20260507123547 | 17 | 0 | 0.0 | 3.2 | 0.05 | 1.45 | 0.71 | 96 | 1010.5 |
| 20260507123051 | 17 | 0 | 0.0 | 4.8 | 0.05 | 1.42 | 0.69 | 96 | 1010.3 |
| 20260507122549 | 17 | 0 | 0.0 | 4.8 | 0.05 | 1.42 | 0.69 | 96 | 1010.3 |
| 20260507122048 | 17 | 0 | 0.0 | 3.2 | 0.08 | 1.42 | 0.69 | 96 | 1010.3 |
| 20260507121556 | 17 | 0 | 0.0 | 3.2 | 0.08 | 1.42 | 0.69 | 96 | 1010.3 |
| 20260507121052 | 17 | 0 | 0.0 | 3.2 | 0.08 | 1.42 | 0.69 | 96 | 1010.4 |
| 20260507120549 | 17 | 0 | 0.0 | 1.6 | 0.05 | 1.40 | 0.66 | 96 | 1010.4 |
| 20260507120050 | 17 | 0 | 0.0 | 3.2 | 0.05 | 1.40 | 0.66 | 96 | 1010.2 |
| 20260507115550 | 17 | 0 | 0.0 | 3.2 | 0.05 | 1.40 | 0.66 | 96 | 1010.3 |
| 20260507115049 | 17 | 74 | 0.0 | 3.2 | 0.05 | 1.40 | 0.66 | 96 | 1010.4 |
| 20260507114549 | 17 | 227 | 0.0 | 1.6 | 0.05 | 1.40 | 0.66 | 96 | 1010.2 |
| 20260507114052 | 17 | 0 | 0.0 | 1.6 | 0.05 | 1.40 | 0.66 | 96 | 1009.8 |
| 20260507113550 | 17 | 0 | 0.0 | 1.6 | 0.05 | 1.40 | 0.66 | 96 | 1009.9 |
| 20260507113052 | 17 | 0 | 0.0 | 3.2 | 0.03 | 1.37 | 0.64 | 96 | 1009.9 |
| 20260507112549 | 17 | 0 | 0.0 | 3.2 | 0.03 | 1.37 | 0.64 | 96 | 1009.9 |
| 20260507112049 | 17 | 0 | 0.0 | 3.2 | 0.00 | 1.32 | 0.61 | 96 | 1010.0 |
| 20260507111553 | 17 | 0 | 0.0 | 1.6 | 0.00 | 1.32 | 0.61 | 95 | 1010.3 |
| 20260507111049 | 17 | 0 | 0.0 | 1.6 | 0.00 | 1.32 | 0.61 | 95 | 1010.4 |
| 20260507110546 | 17 | 0 | 0.0 | 1.6 | 0.00 | 1.32 | 0.61 | 95 | 1010.1 |
| 20260507110105 | 17 | 0 | 0.0 | 3.2 | 0.00 | 1.32 | 0.61 | 95 | 1010.2 |
| 20260507105545 | 17 | 0 | 0.0 | 3.2 | 0.00 | 1.32 | 0.61 | 95 | 1010.3 |
| 20260507105048 | 17 | 0 | 0.0 | 1.6 | 0.00 | 1.32 | 0.61 | 95 | 1010.3 |
| 20260507104550 | 17 | 0 | 0.0 | 3.2 | 0.00 | 1.32 | 0.61 | 95 | 1010.1 |
| 20260507104050 | 17 | 0 | 0.0 | 3.2 | 0.03 | 1.32 | 0.61 | 95 | 1010.2 |
| 20260507103549 | 17 | 0 | 0.0 | 6.4 | 0.03 | 1.32 | 0.61 | 95 | 1010.1 |
| 20260507103056 | 17 | 0 | 0.0 | 6.4 | 0.05 | 1.32 | 0.61 | 95 | 1010.2 |
| 20260507102549 | 17 | 0 | 0.0 | 1.6 | 0.05 | 1.32 | 0.61 | 95 | 1010.3 |
| 20260507102049 | 17 | 0 | 0.0 | 0.0 | 0.05 | 1.32 | 0.61 | 95 | 1010.2 |
| 20260507101551 | 17 | 0 | 0.0 | 1.6 | 0.05 | 1.32 | 0.61 | 95 | 1010.1 |
| 20260507101048 | 17 | 0 | 0.0 | 1.6 | 0.05 | 1.32 | 0.61 | 95 | 1009.9 |
| 20260507100546 | 17 | 0 | 0.0 | 3.2 | 0.05 | 1.32 | 0.61 | 95 | 1009.9 |
| 20260507100055 | 17 | 0 | 0.0 | 3.2 | 0.05 | 1.32 | 0.61 | 95 | 1010.1 |
| 20260507095549 | 17 | 0 | 0.0 | 6.4 | 0.05 | 1.32 | 0.61 | 95 | 1010.0 |
| 20260507095048 | 17 | 0 | 0.0 | 6.4 | 0.08 | 1.32 | 0.61 | 95 | 1010.1 |
| 20260507094608 | 17 | 0 | 0.0 | 6.4 | 0.08 | 1.32 | 0.61 | 95 | 1010.2 |
| 20260507094045 | 17 | 0 | 0.0 | 0.0 | 0.05 | 1.32 | 0.58 | 95 | 1009.9 |
| 20260507093545 | 17 | 0 | 0.0 | 0.0 | 0.05 | 1.32 | 0.58 | 95 | 1010.0 |
| 20260507093057 | 17 | 0 | 0.0 | 0.0 | 0.05 | 1.30 | 0.56 | 95 | 1010.1 |
| 20260507092554 | 17 | 0 | 0.0 | 0.0 | 0.05 | 1.30 | 0.56 | 94 | 1010.1 |
| 20260507092049 | 17 | 0 | 0.0 | 0.0 | 0.05 | 1.30 | 0.56 | 94 | 1010.2 |
| 20260507091618 | 17 | 0 | 0.0 | 0.0 | 0.05 | 1.30 | 0.56 | 94 | 1010.3 |
| 20260507091052 | 17 | 0 | 0.0 | 0.0 | 0.08 | 1.30 | 0.56 | 94 | 1010.2 |
| 20260507090550 | 17 | 0 | 0.0 | 0.0 | 0.08 | 1.30 | 0.56 | 94 | 1010.1 |
| 20260507090106 | 17 | 0 | 0.0 | 0.0 | 0.08 | 1.30 | 0.56 | 94 | 1010.1 |
| 20260507085552 | 17 | 0 | 0.0 | 0.0 | 0.10 | 1.30 | 0.56 | 94 | 1010.2 |
| 20260507085047 | 17 | 0 | 0.0 | 0.0 | 0.08 | 1.27 | 0.53 | 94 | 1010.1 |
| 20260507084558 | 17 | 0 | 0.0 | 0.0 | 0.08 | 1.27 | 0.53 | 94 | 1010.1 |
| 20260507084047 | 17 | 0 | 0.0 | 0.0 | 0.08 | 1.27 | 0.53 | 94 | 1010.2 |
| 20260507083546 | 17 | 0 | 0.0 | 1.6 | 0.08 | 1.27 | 0.53 | 94 | 1010.1 |
| 20260507083056 | 17 | 0 | 0.0 | 1.6 | 0.05 | 1.24 | 0.51 | 94 | 1010.2 |
| 20260507082549 | 17 | 87 | 0.0 | 1.6 | 0.05 | 1.24 | 0.51 | 94 | 1010.2 |
| 20260507082052 | 17 | 0 | 0.0 | 3.2 | 0.08 | 1.24 | 0.51 | 94 | 1010.3 |
| 20260507081555 | 17 | 0 | 0.0 | 3.2 | 0.08 | 1.24 | 0.51 | 94 | 1010.4 |
| 20260507081045 | 17 | 0 | 0.0 | 1.6 | 0.08 | 1.22 | 0.48 | 94 | 1010.6 |
| 20260507080545 | 17 | 0 | 0.0 | 1.6 | 0.08 | 1.22 | 0.48 | 94 | 1010.5 |
| 20260507075549 | 17 | 0 | 0.0 | 4.8 | 0.13 | 1.19 | 0.46 | 94 | 1010.7 |
| 20260507075048 | 17 | 0 | 0.0 | 4.8 | 0.18 | 1.19 | 0.46 | 94 | 1010.9 |
| 20260507074600 | 17 | 0 | 0.0 | 0.0 | 0.23 | 1.19 | 0.46 | 94 | 1010.9 |
| 20260507074047 | 17 | 0 | 0.0 | 0.0 | 0.23 | 1.19 | 0.46 | 94 | 1011.2 |
| 20260507073547 | 17 | 0 | 0.0 | 0.0 | 0.23 | 1.19 | 0.46 | 94 | 1011.4 |
| 20260507073053 | 17 | 0 | 0.0 | 0.0 | 0.23 | 1.19 | 0.46 | 94 | 1011.3 |
| 20260507072547 | 17 | 0 | 0.0 | 0.0 | 0.23 | 1.19 | 0.46 | 94 | 1011.0 |
| 20260507072046 | 17 | 0 | 0.0 | 0.0 | 0.20 | 1.17 | 0.43 | 94 | 1010.7 |
| 20260507071557 | 17 | 0 | 0.0 | 0.0 | 0.23 | 1.17 | 0.43 | 94 | 1010.5 |
| 20260507071047 | 17 | 0 | 0.0 | 0.0 | 0.20 | 1.14 | 0.41 | 93 | 1010.5 |
| 20260507070546 | 17 | 0 | 0.0 | 0.0 | 0.20 | 1.14 | 0.41 | 93 | 1010.7 |
| 20260507070101 | 17 | 0 | 0.0 | 0.0 | 0.18 | 1.12 | 0.38 | 94 | 1011.5 |
| 20260507065545 | 17 | 0 | 0.0 | 0.0 | 0.13 | 1.07 | 0.33 | 93 | 1011.8 |
| 20260507065048 | 17 | 0 | 0.0 | 0.0 | 0.05 | 0.99 | 0.25 | 93 | 1011.7 |